User: anonymous   Login
Location: Sungai Anya
(2.6167°N, 114.0500°E)
Time: 18:18:35
(UTC+00:00)
Language:

Ariane H10-3 - Orbit

View from above orbital plane
View from above orbital plane
View from above satellite
View from above satellite

Ground track
Ground track

The orbit data is extracted from the following two-line orbital elements,

1 23687U 95055B   22023.57447551 -.00000028  00000-0  59492-4 0  9991
2 23687   4.7131 145.5940 7226892 216.3647  60.5740  2.21759965212381
Epoch (UTC): 23 January 2022 13:47:14
Eccentricity: 0.7226892
inclination: 4.7131°
perigee height: 510 km
apogee height: 36412 km
right ascension of ascending node: 145.5940°
argument of perigee: 216.3647°
revolutions per day: 2.21759965
mean anomaly at epoch: 60.5740°
orbit number at epoch: 21238

The dashed part of the orbit path shows where the satellite is in the earth's shadow,  

DLR